Notices

What's New in latest Release from April 7th, 2021:

- Updated Glossary, including Speed of Maximum Gust, and Total Hourly Precipitation

- Updated national and regional climate services offices contacts and prices information

- Addition of station inventory lists for 1981-2010, 1971-2000, and 1961-1990 Normals.

Please note that as of June 10, 2021 UTC dates are available for all years 2004-present, and DBA is working on populating the remaining years (2003 to 1953).

If you haven't already, please take our survey and provide feedback about our website: https://eccc.sondage-survey.ca/f/LanguageSelection.aspx?s=442ca660-fcf1-47c0-95a9-59707d6fd709

Hourly Data Report for July 02, 2003

TORONTO CITY
ONTARIO

43°40'00.000" N
79°24'00.000" W
112.50 m
6158355
71508
XTO

Download Data

Hourly Data (July 2003)
Hourly Data Report for July 2, 2003
TIME
LST
Temp Definition
°C
Dew Point Definition
°C
Rel Hum Definition
%
Precip. Amount Definition
mm

Wind Dir Definition
10's deg

Wind Spd Definition
km/h
Visibility Definition
km
Stn Press Definition
kPa
Hmdx Definition


Wind Chill Definition


Weather Definition


00:00 20.4 14.8 70   LegendMM LegendMM LegendMM 100.14     LegendNANA
01:00 19.6 14.8 74   LegendMM LegendMM LegendMM 100.13     LegendNANA
02:00 19.4 15.2 77   LegendMM LegendMM LegendMM 100.11     LegendNANA
03:00 18.0 15.0 83   LegendMM LegendMM LegendMM 100.08     LegendNANA
04:00 17.1 14.7 86   LegendMM LegendMM LegendMM 100.05     LegendNANA
05:00 17.0 14.8 87   LegendMM LegendMM LegendMM 100.03     LegendNANA
06:00 18.1 15.9 87   LegendMM LegendMM LegendMM 100.03     LegendNANA
07:00 20.3 16.4 78   LegendMM LegendMM LegendMM 100.02 25   LegendNANA
08:00 23.2 16.1 64   LegendMM LegendMM LegendMM 100.02 28   LegendNANA
09:00 25.0 16.1 58   LegendMM LegendMM LegendMM 100.01 30   LegendNANA
10:00 26.6 14.7 48   LegendMM LegendMM LegendMM 99.97 30   LegendNANA
11:00 27.6 14.4 44   LegendMM LegendMM LegendMM 99.96 31   LegendNANA
12:00 28.1 13.5 41   LegendMM LegendMM LegendMM 99.91 31   LegendNANA
13:00 28.9 14.9 43   LegendMM LegendMM LegendMM 99.84 33   LegendNANA
14:00 28.6 14.2 41   LegendMM LegendMM LegendMM 99.75 32   LegendNANA
15:00 29.1 15.4 43   LegendMM LegendMM LegendMM 99.66 33   LegendNANA
16:00 28.5 15.3 45   LegendMM LegendMM LegendMM 99.62 33   LegendNANA
17:00 26.5 16.4 54   LegendMM LegendMM LegendMM 99.57 31   LegendNANA
18:00 25.8 16.6 57   LegendMM LegendMM LegendMM 99.54 31   LegendNANA
19:00 24.8 15.9 58   LegendMM LegendMM LegendMM 99.55 29   LegendNANA
20:00 23.9 15.3 59   LegendMM LegendMM LegendMM 99.55 28   LegendNANA
21:00 23.2 16.0 64   LegendMM LegendMM LegendMM 99.58 28   LegendNANA
22:00 22.1 16.6 71   LegendMM LegendMM LegendMM 99.57 27   LegendNANA
23:00 21.2 16.4 74   LegendMM LegendMM LegendMM 99.60 26   LegendNANA

Notes on Data Quality.

Legend

  • E = Estimated
  • M = Missing
  • NA = Not Available*
  • [empty] = Indicates an unobserved value
Date modified: